Location: Wildlife_Club
(35.6000°N, 81.4330°W)
Time: 18:46:15
(UTC-04:00)

Courier 1B Rocket - Pass Details

Date: 19 June 2019
Orbit: 920 x 1202 km, 28.2° (Epoch: 14 July)

Event Time Altitude Azimuth Distance (km) Brightness Sun altitude
Exits shadow 04:26:09 10° 173° (S) 2,821 7.0 -17.4°
Reaches altitude 10° 04:26:10 10° 173° (S) 2,817 7.0 -17.3°
Maximum altitude 04:28:28 12° 153° (SSE) 2,649 7.1 -17.0°
Drops below altitude 10° 04:30:44 10° 132° (SE) 2,752 7.4 -16.7°
Sets 04:35:24 0° 102° (ESE) 3,640 8.5 -16.1°
